| time (UTC) | temp F | wind direction | speed MPH | gust MPH | rain 1hr in | rain 24hr in | rain mn in | humidity % | barometer mb |
| 20260831230417 | 71 | 0.0 | 0.0 | 0.00 | 0.00 | 0.00 | 63 | 1018.1 | |
| 20260831225417 | 71 | 0.0 | 1.0 | 0.00 | 0.00 | 0.00 | 60 | 1018.3 | |
| 20260831224417 | 72 | 293 | 1.0 | 1.0 | 0.00 | 0.00 | 0.00 | 59 | 1018.2 |
| 20260831223417 | 72 | 0.0 | 1.0 | 0.00 | 0.00 | 0.00 | 58 | 1018.2 | |
| 20260831222417 | 73 | 0.0 | 0.0 | 0.00 | 0.00 | 0.00 | 58 | 1018.2 | |
| 20260831221417 | 73 | 315 | 2.0 | 3.0 | 0.00 | 0.00 | 0.00 | 58 | 1018.2 |
| 20260831220417 | 73 | 0 | 1.0 | 2.0 | 0.00 | 0.00 | 0.00 | 57 | 1018.1 |
| 20260831215417 | 74 | 0 | 3.0 | 6.0 | 0.00 | 0.00 | 0.00 | 55 | 1018.2 |
| 20260831214417 | 74 | 23 | 3.0 | 4.0 | 0.00 | 0.00 | 0.00 | 56 | 1018.2 |
| 20260831213417 | 74 | 315 | 1.0 | 2.0 | 0.00 | 0.00 | 0.00 | 57 | 1018.3 |
| 20260831212417 | 74 | 0 | 1.0 | 2.0 | 0.00 | 0.00 | 0.00 | 58 | 1018.1 |
| 20260831211417 | 73 | 0.0 | 2.0 | 0.00 | 0.00 | 0.00 | 58 | 1018.0 | |
| 20260831210417 | 73 | 23 | 3.0 | 6.0 | 0.00 | 0.00 | 0.00 | 61 | 1018.1 |
| 20260831205417 | 73 | 0.0 | 0.0 | 0.00 | 0.00 | 0.00 | 61 | 1018.2 | |
| 20260831204417 | 74 | 0 | 3.0 | 5.0 | 0.00 | 0.00 | 0.00 | 61 | 1018.4 |
| 20260831203417 | 74 | 293 | 1.0 | 2.0 | 0.00 | 0.00 | 0.00 | 61 | 1018.5 |
| 20260831202417 | 74 | 23 | 2.0 | 4.0 | 0.00 | 0.00 | 0.00 | 60 | 1018.5 |
| 20260831201437 | 74 | 23 | 2.0 | 4.0 | 0.00 | 0.00 | 0.00 | 59 | 1018.4 |
| 20260831200417 | 74 | 0 | 5.0 | 7.0 | 0.00 | 0.00 | 0.00 | 58 | 1018.7 |
| 20260831195417 | 74 | 45 | 2.0 | 3.0 | 0.00 | 0.00 | 0.00 | 58 | 1018.6 |
| 20260831194417 | 74 | 338 | 2.0 | 3.0 | 0.00 | 0.00 | 0.00 | 57 | 1018.8 |
| 20260831193417 | 73 | 23 | 3.0 | 6.0 | 0.00 | 0.00 | 0.00 | 57 | 1018.8 |
| 20260831192417 | 74 | 293 | 3.0 | 5.0 | 0.00 | 0.00 | 0.00 | 58 | 1018.9 |
| 20260831191417 | 74 | 0 | 2.0 | 4.0 | 0.00 | 0.00 | 0.00 | 56 | 1018.9 |
| 20260831190417 | 74 | 0 | 1.0 | 2.0 | 0.00 | 0.00 | 0.00 | 52 | 1019.0 |
| 20260831185418 | 74 | 180 | 3.0 | 4.0 | 0.00 | 0.00 | 0.00 | 51 | 1019.0 |
| 20260831184417 | 74 | 158 | 5.0 | 8.0 | 0.00 | 0.00 | 0.00 | 50 | 1019.1 |
| 20260831183437 | 74 | 90 | 1.0 | 2.0 | 0.00 | 0.00 | 0.00 | 46 | 1019.3 |
| 20260831182417 | 73 | 315 | 1.0 | 2.0 | 0.00 | 0.00 | 0.00 | 42 | 1019.3 |
| 20260831181417 | 73 | 158 | 4.0 | 6.0 | 0.00 | 0.00 | 0.00 | 45 | 1019.3 |
| 20260831180417 | 72 | 203 | 2.0 | 3.0 | 0.00 | 0.00 | 0.00 | 46 | 1019.6 |
| 20260831175417 | 72 | 0 | 1.0 | 1.0 | 0.00 | 0.00 | 0.00 | 40 | 1019.6 |
| 20260831174417 | 72 | 0 | 3.0 | 5.0 | 0.00 | 0.00 | 0.00 | 46 | 1019.7 |
| 20260831173417 | 72 | 23 | 3.0 | 5.0 | 0.00 | 0.00 | 0.00 | 47 | 1019.8 |
| 20260831172417 | 72 | 23 | 4.0 | 5.0 | 0.00 | 0.00 | 0.00 | 53 | 1020.0 |
| 20260831171417 | 72 | 68 | 1.0 | 2.0 | 0.00 | 0.00 | 0.00 | 55 | 1020.0 |
| 20260831170417 | 72 | 270 | 1.0 | 3.0 | 0.00 | 0.00 | 0.00 | 57 | 1020.2 |
| 20260831165417 | 71 | 158 | 2.0 | 4.0 | 0.00 | 0.00 | 0.00 | 55 | 1020.3 |
| 20260831164417 | 70 | 135 | 3.0 | 4.0 | 0.00 | 0.00 | 0.00 | 53 | 1020.3 |
| 20260831163417 | 70 | 158 | 3.0 | 4.0 | 0.00 | 0.00 | 0.00 | 54 | 1020.4 |
| 20260831162437 | 70 | 158 | 4.0 | 5.0 | 0.00 | 0.00 | 0.00 | 54 | 1020.4 |
| 20260831161418 | 70 | 68 | 3.0 | 5.0 | 0.00 | 0.00 | 0.00 | 54 | 1020.5 |
| 20260831160417 | 70 | 0 | 4.0 | 6.0 | 0.00 | 0.00 | 0.00 | 57 | 1020.5 |
| 20260831155417 | 69 | 23 | 4.0 | 6.0 | 0.00 | 0.00 | 0.00 | 54 | 1020.6 |
| 20260831154417 | 69 | 23 | 4.0 | 5.0 | 0.00 | 0.00 | 0.00 | 54 | 1020.6 |
| 20260831153417 | 69 | 0 | 6.0 | 8.0 | 0.00 | 0.00 | 0.00 | 54 | 1020.6 |
| 20260831152417 | 68 | 23 | 4.0 | 5.0 | 0.00 | 0.00 | 0.00 | 53 | 1020.5 |
| 20260831151437 | 68 | 0 | 7.0 | 9.0 | 0.00 | 0.00 | 0.00 | 58 | 1020.5 |
| 20260831150417 | 67 | 0 | 5.0 | 7.0 | 0.00 | 0.00 | 0.00 | 59 | 1020.7 |
| 20260831145417 | 67 | 23 | 7.0 | 10.0 | 0.00 | 0.00 | 0.00 | 62 | 1020.7 |
| 20260831144417 | 67 | 23 | 6.0 | 8.0 | 0.00 | 0.00 | 0.00 | 62 | 1020.8 |
| 20260831143417 | 67 | 0 | 3.0 | 4.0 | 0.00 | 0.00 | 0.00 | 64 | 1020.8 |
| 20260831142417 | 66 | 0 | 4.0 | 5.0 | 0.00 | 0.00 | 0.00 | 66 | 1020.9 |
| 20260831141437 | 66 | 0 | 4.0 | 5.0 | 0.00 | 0.00 | 0.00 | 70 | 1020.8 |
| 20260831140417 | 65 | 23 | 6.0 | 7.0 | 0.00 | 0.00 | 0.00 | 69 | 1020.8 |
| 20260831135417 | 65 | 23 | 6.0 | 8.0 | 0.00 | 0.00 | 0.00 | 68 | 1020.7 |
| 20260831134417 | 65 | 23 | 4.0 | 7.0 | 0.00 | 0.00 | 0.00 | 71 | 1020.5 |
| 20260831133417 | 64 | 23 | 5.0 | 7.0 | 0.00 | 0.00 | 0.00 | 73 | 1020.6 |
| 20260831132417 | 64 | 0 | 4.0 | 8.0 | 0.00 | 0.00 | 0.00 | 74 | 1020.6 |
| 20260831131417 | 63 | 23 | 4.0 | 5.0 | 0.00 | 0.00 | 0.00 | 77 | 1020.6 |
| 20260831130437 | 63 | 0 | 6.0 | 8.0 | 0.00 | 0.00 | 0.00 | 77 | 1020.8 |
| 20260831125417 | 62 | 0 | 6.0 | 8.0 | 0.00 | 0.00 | 0.00 | 78 | 1020.8 |
| 20260831124417 | 62 | 23 | 3.0 | 9.0 | 0.00 | 0.00 | 0.00 | 78 | 1020.8 |
| 20260831123417 | 62 | 23 | 4.0 | 6.0 | 0.00 | 0.00 | 0.00 | 81 | 1020.7 |
| 20260831122417 | 61 | 0 | 5.0 | 7.0 | 0.00 | 0.00 | 0.00 | 82 | 1020.6 |
| 20260831121417 | 61 | 45 | 4.0 | 5.0 | 0.00 | 0.00 | 0.00 | 83 | 1020.6 |
| 20260831120417 | 61 | 90 | 2.0 | 3.0 | 0.00 | 0.00 | 0.00 | 85 | 1020.7 |
| 20260831115417 | 60 | 113 | 3.0 | 6.0 | 0.00 | 0.00 | 0.00 | 88 | 1020.7 |
| 20260831114417 | 59 | 45 | 2.0 | 3.0 | 0.00 | 0.00 | 0.00 | 88 | 1020.4 |
| 20260831113417 | 59 | 0 | 3.0 | 5.0 | 0.00 | 0.00 | 0.00 | 91 | 1020.4 |
| 20260831112417 | 59 | 23 | 3.0 | 3.0 | 0.00 | 0.00 | 0.00 | 92 | 1020.3 |
| 20260831111417 | 59 | 23 | 2.0 | 2.0 | 0.00 | 0.00 | 0.00 | 93 | 1020.1 |
| 20260831110437 | 58 | 0.0 | 1.0 | 0.00 | 0.00 | 0.00 | 94 | 1020.2 | |
| 20260831105417 | 57 | 0 | 3.0 | 4.0 | 0.00 | 0.00 | 0.00 | 94 | 1020.1 |
| 20260831104417 | 57 | 0.0 | 0.0 | 0.00 | 0.00 | 0.00 | 94 | 1020.1 | |
| 20260831103417 | 57 | 0.0 | 0.0 | 0.00 | 0.00 | 0.00 | 95 | 1020.3 | |
| 20260831102417 | 56 | 0.0 | 0.0 | 0.00 | 0.00 | 0.00 | 95 | 1020.0 | |
| 20260831101417 | 56 | 0.0 | 0.0 | 0.00 | 0.00 | 0.00 | 94 | 1020.0 | |
| 20260831100417 | 56 | 0.0 | 0.0 | 0.00 | 0.00 | 0.00 | 93 | 1020.0 | |
| 20260831095416 | 57 | 0.0 | 0.0 | 0.00 | 0.00 | 0.00 | 93 | 1019.9 | |
| 20260831094437 | 57 | 0.0 | 0.0 | 0.00 | 0.00 | 0.00 | 93 | 1019.9 | |
| 20260831093417 | 58 | 0.0 | 0.0 | 0.00 | 0.00 | 0.00 | 92 | 1019.8 | |
| 20260831092417 | 58 | 0.0 | 0.0 | 0.00 | 0.00 | 0.00 | 92 | 1019.8 | |
| 20260831091417 | 58 | 0.0 | 0.0 | 0.00 | 0.00 | 0.00 | 92 | 1019.8 | |
| 20260831090417 | 59 | 0.0 | 0.0 | 0.00 | 0.00 | 0.00 | 92 | 1019.7 | |
| 20260831085417 | 59 | 23 | 3.0 | 4.0 | 0.00 | 0.00 | 0.00 | 92 | 1019.6 |
| 20260831084417 | 58 | 45 | 2.0 | 3.0 | 0.00 | 0.00 | 0.00 | 94 | 1019.4 |
| 20260831083417 | 58 | 0.0 | 0.0 | 0.00 | 0.00 | 0.00 | 94 | 1019.3 | |
| 20260831082417 | 58 | 0.0 | 0.0 | 0.00 | 0.00 | 0.00 | 94 | 1019.3 | |
| 20260831081437 | 57 | 0.0 | 0.0 | 0.00 | 0.00 | 0.00 | 94 | 1019.4 | |
| 20260831080417 | 57 | 338 | 1.0 | 2.0 | 0.00 | 0.00 | 0.00 | 94 | 1019.3 |
| 20260831075417 | 58 | 0.0 | 0.0 | 0.00 | 0.00 | 0.00 | 93 | 1019.4 | |
| 20260831074417 | 58 | 0.0 | 0.0 | 0.00 | 0.00 | 0.00 | 93 | 1019.2 | |
| 20260831073417 | 58 | 0.0 | 0.0 | 0.00 | 0.00 | 0.00 | 92 | 1019.1 | |
| 20260831072417 | 58 | 0.0 | 0.0 | 0.00 | 0.00 | 0.00 | 92 | 1018.9 | |
| 20260831071417 | 58 | 0.0 | 0.0 | 0.00 | 0.00 | 0.00 | 91 | 1018.9 | |
| 20260831070417 | 59 | 0.0 | 0.0 | 0.00 | 0.00 | 0.00 | 90 | 1018.9 | |
| 20260831065417 | 59 | 0.0 | 0.0 | 0.00 | 0.00 | 0.00 | 90 | 1018.9 | |
| 20260831064417 | 60 | 0.0 | 0.0 | 0.00 | 0.00 | 0.00 | 89 | 1018.9 | |
| 20260831063417 | 60 | 293 | 1.0 | 2.0 | 0.00 | 0.00 | 0.00 | 88 | 1019.0 |
| 20260831062417 | 60 | 338 | 1.0 | 2.0 | 0.00 | 0.00 | 0.00 | 88 | 1018.9 |
| 20260831061416 | 60 | 0.0 | 1.0 | 0.00 | 0.00 | 0.00 | 88 | 1019.0 | |
| 20260831060417 | 61 | 338 | 1.0 | 1.0 | 0.00 | 0.00 | 0.00 | 87 | 1019.0 |
| 20260831055417 | 61 | 0.0 | 0.0 | 0.00 | 0.00 | 0.00 | 87 | 1018.9 | |
| 20260831054417 | 62 | 0.0 | 0.0 | 0.00 | 0.00 | 0.00 | 87 | 1018.9 | |
| 20260831053419 | 62 | 338 | 1.0 | 1.0 | 0.00 | 0.00 | 0.00 | 87 | 1018.8 |
| 20260831052437 | 62 | 338 | 1.0 | 2.0 | 0.00 | 0.00 | 0.00 | 87 | 1018.9 |
| 20260831051417 | 63 | 0 | 1.0 | 2.0 | 0.00 | 0.00 | 0.00 | 88 | 1018.9 |
| 20260831050417 | 63 | 0.0 | 0.0 | 0.00 | 0.00 | 0.00 | 88 | 1018.7 | |
| 20260831045417 | 64 | 0.0 | 1.0 | 0.00 | 0.00 | 0.00 | 87 | 1018.8 | |
| 20260831044417 | 64 | 338 | 1.0 | 2.0 | 0.00 | 0.00 | 0.00 | 87 | 1018.5 |
| 20260831043417 | 64 | 0 | 3.0 | 4.0 | 0.00 | 0.00 | 0.00 | 87 | 1018.4 |
| 20260831042417 | 65 | 23 | 2.0 | 3.0 | 0.00 | 0.00 | 0.00 | 87 | 1018.6 |
| 20260831041456 | 64 | 23 | 3.0 | 6.0 | 0.00 | 0.00 | 0.00 | 89 | 1018.6 |
| 20260831040417 | 64 | 23 | 2.0 | 3.0 | 0.00 | 0.00 | 0.00 | 90 | 1018.5 |
| 20260831035416 | 64 | 0.0 | 2.0 | 0.00 | 0.00 | 0.00 | 90 | 1018.3 | |
| 20260831034456 | 64 | 0.0 | 0.0 | 0.00 | 0.00 | 0.00 | 89 | 1018.3 | |
| 20260831033416 | 65 | 0.0 | 0.0 | 0.00 | 0.00 | 0.00 | 89 | 1018.2 | |
| 20260831032416 | 65 | 0.0 | 0.0 | 0.00 | 0.00 | 0.00 | 88 | 1018.2 | |
| 20260831031436 | 66 | 0.0 | 0.0 | 0.00 | 0.00 | 0.00 | 87 | 1018.3 | |
| 20260831030416 | 66 | 0.0 | 1.0 | 0.00 | 0.00 | 0.00 | 86 | 1018.5 | |
| 20260831025416 | 66 | 0.0 | 0.0 | 0.00 | 0.00 | 0.00 | 85 | 1018.4 | |
| 20260831024416 | 67 | 0.0 | 2.0 | 0.00 | 0.00 | 0.00 | 85 | 1018.3 | |
| 20260831023416 | 67 | 180 | 1.0 | 1.0 | 0.00 | 0.00 | 0.00 | 85 | 1018.4 |
| 20260831022415 | 67 | 0.0 | 0.0 | 0.00 | 0.00 | 0.00 | 83 | 1018.3 | |
| 20260831021416 | 67 | 0.0 | 0.0 | 0.00 | 0.00 | 0.00 | 82 | 1018.1 | |
| 20260831020416 | 67 | 0.0 | 0.0 | 0.00 | 0.00 | 0.00 | 83 | 1018.2 | |
| 20260831015416 | 67 | 0 | 2.0 | 3.0 | 0.00 | 0.00 | 0.00 | 82 | 1018.0 |
| 20260831014416 | 67 | 293 | 1.0 | 2.0 | 0.00 | 0.00 | 0.00 | 81 | 1017.9 |
| 20260831013416 | 67 | 338 | 2.0 | 4.0 | 0.00 | 0.00 | 0.00 | 82 | 1017.5 |
| 20260831012416 | 67 | 68 | 1.0 | 2.0 | 0.00 | 0.00 | 0.00 | 83 | 1017.5 |
| 20260831011436 | 68 | 0 | 2.0 | 3.0 | 0.00 | 0.00 | 0.00 | 83 | 1017.3 |
| 20260831010415 | 68 | 23 | 3.0 | 4.0 | 0.00 | 0.00 | 0.00 | 82 | 1017.4 |
| 20260831005415 | 68 | 338 | 2.0 | 4.0 | 0.00 | 0.00 | 0.00 | 82 | 1017.5 |
| 20260831004435 | 68 | 0 | 2.0 | 3.0 | 0.00 | 0.00 | 0.00 | 80 | 1017.4 |
| 20260831003415 | 69 | 0 | 2.0 | 4.0 | 0.00 | 0.00 | 0.00 | 79 | 1017.3 |
| 20260831002415 | 69 | 0 | 2.0 | 4.0 | 0.00 | 0.00 | 0.00 | 78 | 1017.0 |
| 20260831001436 | 69 | 0 | 1.0 | 2.0 | 0.00 | 0.00 | 0.00 | 78 | 1016.8 |
| 20260831000417 | 70 | 23 | 4.0 | 6.0 | 0.00 | 0.00 | 0.00 | 76 | 1016.6 |
| 20260830235436 | 70 | 0 | 1.0 | 1.0 | 0.00 | 0.00 | 0.00 | 77 | 1016.3 |
| 20260830234416 | 70 | 0.0 | 0.0 | 0.00 | 0.00 | 0.00 | 77 | 1016.1 | |
| 20260830233415 | 70 | 23 | 3.0 | 4.0 | 0.00 | 0.00 | 0.00 | 77 | 1016.0 |
| 20260830232416 | 70 | 23 | 2.0 | 4.0 | 0.00 | 0.00 | 0.00 | 77 | 1016.1 |
| 20260830231416 | 71 | 23 | 2.0 | 3.0 | 0.00 | 0.00 | 0.00 | 76 | 1015.9 |